| time (UTC) | temp F | wind direction | speed MPH | gust MPH | rain 1hr in | rain 24hr in | rain mn in | humidity % | barometer mb |
| 20260502223004 | 39 | 179 | 0.0 | 0.0 | 0.04 | 0.11 | 0.11 | 90 | 1011.7 |
| 20260502221502 | 39 | 179 | 0.0 | 0.0 | 0.04 | 0.10 | 0.10 | 90 | 1011.8 |
| 20260502220002 | 39 | 179 | 0.0 | 0.0 | 0.05 | 0.09 | 0.09 | 90 | 1012.0 |
| 20260502214501 | 39 | 167 | 0.0 | 0.0 | 0.06 | 0.09 | 0.09 | 89 | 1012.1 |
| 20260502213100 | 39 | 180 | 0.0 | 4.0 | 0.05 | 0.07 | 0.07 | 89 | 1012.1 |
| 20260502211602 | 39 | 192 | 0.0 | 8.0 | 0.05 | 0.06 | 0.06 | 88 | 1012.0 |
| 20260502210058 | 40 | 180 | 3.0 | 11.0 | 0.05 | 0.05 | 0.05 | 87 | 1012.1 |
| 20260502204558 | 41 | 198 | 1.0 | 6.0 | 0.03 | 0.03 | 0.03 | 87 | 1012.0 |
| 20260502203058 | 41 | 241 | 0.0 | 8.0 | 0.02 | 0.02 | 0.02 | 86 | 1012.0 |
| 20260502201604 | 41 | 221 | 5.0 | 11.0 | 0.01 | 0.01 | 0.01 | 81 | 1011.9 |
| 20260502200055 | 43 | 188 | 6.0 | 14.0 | 0.00 | 0.00 | 0.00 | 78 | 1011.9 |
| 20260502194612 | 44 | 184 | 4.0 | 10.0 | 0.00 | 0.00 | 0.00 | 77 | 1011.8 |
| 20260502193106 | 44 | 165 | 7.0 | 12.0 | 0.00 | 0.00 | 0.00 | 73 | 1011.8 |
| 20260502191601 | 45 | 200 | 2.0 | 11.0 | 0.00 | 0.00 | 0.00 | 72 | 1011.8 |
| 20260502190053 | 45 | 164 | 6.0 | 10.0 | 0.00 | 0.00 | 0.00 | 69 | 1011.8 |
| 20260502184602 | 46 | 202 | 5.0 | 10.0 | 0.00 | 0.00 | 0.00 | 67 | 1011.7 |
| 20260502183051 | 45 | 185 | 4.0 | 12.0 | 0.00 | 0.00 | 0.00 | 69 | 1011.7 |
| 20260502181552 | 47 | 194 | 1.0 | 12.0 | 0.00 | 0.00 | 0.00 | 63 | 1011.7 |
| 20260502163050 | 47 | 195 | 0.0 | 13.0 | 0.00 | 0.00 | 0.00 | 52 | 1011.9 |
| 20260502161603 | 47 | 233 | 0.0 | 9.0 | 0.00 | 0.00 | 0.00 | 52 | 1011.9 |
| 20260502160104 | 47 | 165 | 5.0 | 9.0 | 0.00 | 0.00 | 0.00 | 48 | 1011.9 |
| 20260502151543 | 49 | 246 | 2.0 | 12.0 | 0.00 | 0.00 | 0.00 | 46 | 1011.9 |
| 20260502123040 | 43 | 360 | 0.0 | 8.0 | 0.00 | 0.01 | 0.00 | 61 | 1012.5 |
| 20260502121519 | 42 | 360 | 3.0 | 8.0 | 0.00 | 0.01 | 0.00 | 64 | 1012.5 |
| 20260502114513 | 40 | 360 | 0.0 | 0.0 | 0.00 | 0.01 | 0.00 | 68 | 1012.1 |
| 20260502113009 | 39 | 244 | 0.0 | 8.0 | 0.00 | 0.01 | 0.00 | 72 | 1012.1 |
| 20260502111506 | 37 | 339 | 7.0 | 11.0 | 0.00 | 0.01 | 0.00 | 73 | 1011.5 |
| 20260502110004 | 37 | 360 | 9.0 | 13.0 | 0.00 | 0.01 | 0.00 | 74 | 1011.3 |
| 20260502104504 | 37 | 360 | 8.0 | 15.0 | 0.00 | 0.02 | 0.00 | 72 | 1011.3 |
| 20260502103007 | 36 | 360 | 5.0 | 10.0 | 0.00 | 0.02 | 0.00 | 74 | 1011.3 |
| 20260502101502 | 36 | 360 | 6.0 | 13.0 | 0.00 | 0.02 | 0.00 | 75 | 1011.3 |
| 20260502070039 | 36 | 360 | 11.0 | 17.0 | 0.00 | 0.05 | 0.00 | 73 | 1009.8 |
| 20260502064538 | 36 | 283 | 8.0 | 17.0 | 0.00 | 0.08 | 0.00 | 73 | 1009.8 |
| 20260502063051 | 36 | 260 | 10.0 | 16.0 | 0.00 | 0.08 | 0.00 | 73 | 1009.5 |
| 20260502061531 | 36 | 267 | 8.0 | 13.0 | 0.00 | 0.08 | 0.00 | 73 | 1009.3 |
| 20260502060029 | 36 | 291 | 8.0 | 13.0 | 0.00 | 0.08 | 0.00 | 73 | 1009.3 |
| 20260502054527 | 36 | 360 | 9.0 | 14.0 | 0.00 | 0.10 | 0.00 | 72 | 1009.2 |
| 20260502053025 | 37 | 279 | 9.0 | 16.0 | 0.00 | 0.10 | 0.00 | 72 | 1009.0 |
| 20260502051524 | 37 | 360 | 11.0 | 16.0 | 0.00 | 0.10 | 0.00 | 71 | 1008.8 |
| 20260502050032 | 37 | 360 | 10.0 | 20.0 | 0.00 | 0.10 | 0.00 | 71 | 1008.8 |
| 20260502044518 | 38 | 360 | 9.0 | 14.0 | 0.00 | 0.15 | 0.00 | 71 | 1008.7 |
| 20260502043016 | 38 | 360 | 8.0 | 13.0 | 0.00 | 0.15 | 0.00 | 71 | 1008.7 |
| 20260502041524 | 38 | 360 | 9.0 | 14.0 | 0.00 | 0.15 | 0.00 | 70 | 1008.7 |
| 20260502040013 | 38 | 246 | 9.0 | 14.0 | 0.00 | 0.15 | 0.00 | 70 | 1008.7 |
| 20260502034511 | 39 | 360 | 6.0 | 14.0 | 0.00 | 0.20 | 0.15 | 69 | 1008.8 |
| 20260502033014 | 39 | 279 | 3.0 | 15.0 | 0.00 | 0.20 | 0.15 | 69 | 1008.7 |
| 20260502031503 | 39 | 257 | 7.0 | 16.0 | 0.00 | 0.20 | 0.15 | 69 | 1008.7 |
| 20260502030003 | 40 | 282 | 6.0 | 14.0 | 0.00 | 0.20 | 0.15 | 68 | 1008.6 |
| 20260502024612 | 40 | 265 | 6.0 | 18.0 | 0.00 | 0.27 | 0.15 | 68 | 1008.6 |
| 20260502023059 | 40 | 360 | 11.0 | 17.0 | 0.00 | 0.27 | 0.15 | 68 | 1008.6 |
| 20260502021604 | 40 | 255 | 8.0 | 15.0 | 0.00 | 0.27 | 0.15 | 69 | 1008.7 |
| 20260502020057 | 40 | 360 | 7.0 | 13.0 | 0.00 | 0.27 | 0.15 | 69 | 1008.6 |
| 20260502014556 | 40 | 279 | 8.0 | 16.0 | 0.00 | 0.36 | 0.15 | 69 | 1008.6 |
| 20260502013053 | 41 | 360 | 10.0 | 21.0 | 0.00 | 0.36 | 0.15 | 69 | 1008.6 |
| 20260502011549 | 41 | 273 | 8.0 | 13.0 | 0.00 | 0.36 | 0.15 | 71 | 1008.5 |
| 20260502010052 | 42 | 360 | 9.0 | 17.0 | 0.00 | 0.36 | 0.15 | 70 | 1008.2 |
| 20260502004555 | 42 | 360 | 7.0 | 13.0 | 0.00 | 0.46 | 0.15 | 71 | 1008.1 |
| 20260502003040 | 43 | 360 | 6.0 | 16.0 | 0.00 | 0.46 | 0.15 | 71 | 1007.9 |
| 20260502001538 | 43 | 360 | 10.0 | 15.0 | 0.00 | 0.46 | 0.15 | 73 | 1007.6 |
| 20260502000034 | 43 | 360 | 8.0 | 12.0 | 0.00 | 0.46 | 0.15 | 74 | 1007.3 |
| 20260501234533 | 44 | 360 | 6.0 | 14.0 | 0.00 | 0.55 | 0.15 | 75 | 1007.0 |
| 20260501233031 | 44 | 288 | 9.0 | 21.0 | 0.00 | 0.55 | 0.15 | 74 | 1006.7 |
| 20260501231528 | 44 | 360 | 9.0 | 16.0 | 0.00 | 0.55 | 0.15 | 73 | 1006.5 |
| 20260501230026 | 44 | 360 | 9.0 | 18.0 | 0.00 | 0.55 | 0.15 | 74 | 1006.4 |
| 20260501224523 | 44 | 360 | 8.0 | 18.0 | 0.00 | 0.59 | 0.15 | 74 | 1006.1 |